{"data":{"norad_id":63489,"epoch":"2026-09-21T22:46:34.252320Z","epoch_age_seconds":85595,"freshness":"FRESH","line1":"1 63489U 25052BK  26264.94900755  .00003184  00000+0  13439-3 0  9991","line2":"2 63489  97.3854 156.0306 0006000 173.1379 186.9941 15.23986767 84561","mean_motion":15.23986767,"eccentricity":0.0006,"inclination_deg":97.3854,"raan_deg":156.0306,"arg_perigee_deg":173.1379,"mean_anomaly_deg":186.9941,"bstar":0.00013439,"rev_number":8456,"period_min":94.489009431143,"perigee_km":489.7064831245,"apogee_km":497.95284312025,"semimajor_km":6871.9666631224,"source":"CELESTRAK","updated_at":"2026-09-22T09:00:29.196769Z"}}